START_TIME,STEP,MOV.,AL01,t_acc.,AL02,t_acc.,E37,t_acc.,H21,t_acc.
1980-11-14 09:04:19.270 ,0,0,,0,,0,,0,,0
1980-11-14 09:04:22.870 ,0,0,,0,,0,,0,,0
1980-11-14 09:09:17.470 ,0,0,0.,24.0,0.,24.0,1.,24.0,0.,24.0
1980-11-14 09:09:34.870 ,2,1,0.,24.0,0.,24.0,1.,24.0,0.,24.0
1980-11-14 09:09:58.870 ,2,0,0.,24.0,0.,24.0,1.,24.0,0.,24.0
1980-11-14 09:10:22.870 ,3,1,0.,24.0,0.,24.0,0.,24.0,0.,24.0
1980-11-14 09:10:46.870 ,3,0,0.,24.0,0.,24.0,3.,24.0,0.,24.0
1980-11-14 09:11:10.870 ,4,1,0.,24.0,0.,24.0,1.,24.0,0.,24.0
1980-11-14 09:11:34.870 ,4,0,0.,24.0,0.,24.0,1.,24.0,0.,24.0
1980-11-14 09:11:58.870 ,5,1,0.,24.0,0.,24.0,0.,24.0,0.,24.0
1980-11-14 09:12:22.870 ,5,0,0.,24.0,0.,24.0,0.,24.0,0.,24.0
1980-11-14 09:12:46.870 ,6,1,0.,24.0,0.,24.0,0.,24.0,0.,24.0
1980-11-14 09:13:10.870 ,6,0,0.,24.0,0.,24.0,1.,24.0,0.,24.0
1980-11-14 09:13:34.870 ,7,1,2.,24.0,0.,24.0,0.,24.0,0.,24.0
1980-11-14 09:13:58.870 ,7,0,9.,24.0,0.,24.0,0.,24.0,0.,24.0
1980-11-14 09:14:22.870 ,7,1,9.,24.0,0.,24.0,1.,24.0,0.,24.0
1980-11-14 09:14:46.870 ,7,0,8.,24.0,0.,24.0,0.,24.0,0.,24.0
1980-11-14 09:15:10.870 ,6,1,9.,24.0,0.,24.0,1.,24.0,0.,24.0
1980-11-14 09:15:34.870 ,6,0,0.,24.0,0.,24.0,0.,24.0,0.,24.0
1980-11-14 09:15:58.870 ,5,1,0.,24.0,0.,24.0,1.,24.0,0.,24.0
1980-11-14 09:16:22.870 ,5,0,0.,24.0,0.,24.0,0.,24.0,0.,24.0
1980-11-14 09:16:46.870 ,4,1,0.,24.0,0.,24.0,0.,24.0,0.,24.0
1980-11-14 09:17:10.870 ,4,0,0.,24.0,0.,24.0,0.,24.0,0.,24.0
1980-11-14 09:17:34.870 ,3,1,0.,24.0,0.,24.0,0.,24.0,0.,24.0
1980-11-14 09:17:58.870 ,3,0,0.,24.0,0.,24.0,1.,24.0,0.,24.0
1980-11-14 09:18:22.870 ,2,1,0.,24.0,0.,24.0,0.,24.0,0.,24.0
1980-11-14 09:18:46.870 ,2,0,0.,24.0,0.,24.0,1.,24.0,0.,24.0
1980-11-14 09:19:10.870 ,1,1,0.,24.0,0.,24.0,1.,24.0,0.,24.0
1980-11-14 09:19:34.870 ,1,0,0.,24.0,0.,24.0,1.,24.0,0.,24.0
1980-11-14 09:19:58.870 ,0,1,0.,24.0,0.,24.0,0.,24.0,0.,24.0
1980-11-14 09:20:22.870 ,0,0,0.,24.0,0.,24.0,1.,24.0,0.,24.0
1980-11-14 09:20:46.870 ,0,1,0.,24.0,0.,24.0,0.,24.0,0.,24.0
1980-11-14 09:21:10.870 ,0,0,0.,24.0,0.,24.0,0.,24.0,0.,24.0
1980-11-14 09:21:29.470 ,0,0,,0,,0,,0,,0
1980-11-14 09:21:34.870 ,1,1,0.,24.0,0.,24.0,0.,24.0,0.,24.0
1980-11-14 09:21:58.870 ,1,0,0.,24.0,0.,24.0,0.,24.0,0.,24.0
1980-11-14 09:22:22.870 ,2,1,0.,24.0,0.,24.0,0.,24.0,0.,24.0
1980-11-14 09:22:46.870 ,2,0,0.,24.0,0.,24.0,0.,24.0,0.,24.0
1980-11-14 09:23:10.870 ,3,1,0.,24.0,0.,24.0,0.,24.0,0.,24.0
1980-11-14 09:23:34.870 ,3,0,0.,24.0,0.,24.0,0.,24.0,0.,24.0
1980-11-14 09:23:58.870 ,4,1,1.,24.0,0.,24.0,0.,24.0,0.,24.0
1980-11-14 09:24:22.870 ,4,0,0.,24.0,0.,24.0,0.,24.0,0.,24.0
1980-11-14 09:24:46.870 ,5,1,0.,24.0,0.,24.0,0.,24.0,0.,24.0
1980-11-14 09:25:10.870 ,5,0,0.,24.0,0.,24.0,2.,24.0,0.,24.0
1980-11-14 09:25:34.870 ,6,1,0.,24.0,0.,24.0,1.,24.0,0.,24.0
1980-11-14 09:25:58.870 ,6,0,0.,24.0,0.,24.0,0.,24.0,0.,24.0
1980-11-14 09:26:22.870 ,7,1,4.,24.0,0.,24.0,0.,24.0,0.,24.0
1980-11-14 09:26:46.870 ,7,0,13.,24.0,0.,24.0,0.,24.0,0.,24.0
1980-11-14 09:27:10.870 ,7,1,12.,24.0,0.,24.0,1.,24.0,0.,24.0
1980-11-14 09:27:34.870 ,7,0,13.,24.0,0.,24.0,0.,24.0,0.,24.0
1980-11-14 09:27:58.870 ,6,1,3.,24.0,0.,24.0,0.,24.0,0.,24.0
1980-11-14 09:28:22.870 ,6,0,0.,24.0,0.,24.0,0.,24.0,0.,24.0
1980-11-14 09:28:46.870 ,5,1,0.,24.0,0.,24.0,0.,24.0,0.,24.0
1980-11-14 09:29:10.870 ,5,0,0.,24.0,0.,24.0,1.,24.0,0.,24.0
1980-11-14 09:29:34.870 ,4,1,0.,24.0,0.,24.0,1.,24.0,0.,24.0
1980-11-14 09:29:58.870 ,4,0,0.,24.0,0.,24.0,0.,24.0,0.,24.0
1980-11-14 09:30:22.870 ,3,1,0.,24.0,0.,24.0,1.,24.0,0.,24.0
1980-11-14 09:30:46.870 ,3,0,0.,24.0,0.,24.0,0.,24.0,0.,24.0
1980-11-14 09:31:10.870 ,2,1,0.,24.0,0.,24.0,0.,24.0,0.,24.0
1980-11-14 09:31:34.870 ,2,0,0.,24.0,0.,24.0,0.,24.0,0.,24.0
1980-11-14 09:31:58.870 ,1,1,0.,24.0,0.,24.0,0.,24.0,0.,24.0
1980-11-14 09:32:22.870 ,1,0,0.,24.0,0.,24.0,1.,24.0,0.,24.0
1980-11-14 09:32:46.870 ,0,1,0.,24.0,0.,24.0,0.,24.0,0.,24.0
1980-11-14 09:33:10.870 ,0,0,0.,24.0,0.,24.0,1.,24.0,0.,24.0
1980-11-14 09:33:34.870 ,0,1,0.,24.0,0.,24.0,0.,24.0,0.,24.0
1980-11-14 09:33:58.870 ,0,0,0.,24.0,0.,24.0,1.,24.0,0.,24.0
1980-11-14 09:34:22.870 ,1,1,0.,24.0,0.,24.0,2.,24.0,0.,24.0
1980-11-14 09:34:46.870 ,1,0,0.,24.0,0.,24.0,2.,24.0,0.,24.0
1980-11-14 09:35:10.870 ,2,1,0.,24.0,0.,24.0,1.,24.0,0.,24.0
1980-11-14 09:35:34.870 ,2,0,0.,24.0,0.,24.0,2.,24.0,0.,24.0
1980-11-14 09:35:58.870 ,0,0,0.,24.0,0.,24.0,0.,24.0,0.,24.0
1980-11-14 09:36:22.870 ,0,0,0.,24.0,0.,24.0,1.,24.0,0.,24.0
1980-11-14 09:36:46.870 ,4,1,0.,24.0,0.,24.0,0.,24.0,0.,24.0
1980-11-14 09:37:10.870 ,4,0,0.,24.0,0.,24.0,0.,24.0,0.,24.0
1980-11-14 09:37:34.870 ,5,1,0.,24.0,0.,24.0,1.,24.0,0.,24.0
1980-11-14 09:37:58.870 ,5,0,0.,24.0,0.,24.0,0.,24.0,0.,24.0
1980-11-14 09:38:22.870 ,6,1,0.,24.0,0.,24.0,1.,24.0,0.,24.0
1980-11-14 09:38:46.870 ,6,0,0.,24.0,0.,24.0,0.,24.0,0.,24.0
1980-11-14 09:39:10.870 ,7,1,3.,24.0,0.,24.0,0.,24.0,0.,24.0
1980-11-14 09:39:34.870 ,7,0,12.,24.0,0.,24.0,0.,24.0,0.,24.0
1980-11-14 09:39:58.870 ,7,1,10.,24.0,0.,24.0,1.,24.0,0.,24.0
1980-11-14 09:40:22.870 ,7,0,5.,24.0,0.,24.0,1.,24.0,0.,24.0
1980-11-14 09:40:46.870 ,6,1,6.,24.0,0.,24.0,1.,24.0,0.,24.0
1980-11-14 09:41:10.870 ,6,0,0.,24.0,0.,24.0,0.,24.0,0.,24.0
1980-11-14 09:41:34.870 ,5,1,0.,24.0,0.,24.0,1.,24.0,0.,24.0
1980-11-14 09:41:58.870 ,5,0,0.,24.0,0.,24.0,0.,24.0,0.,24.0
1980-11-14 09:42:22.870 ,4,1,0.,24.0,0.,24.0,0.,24.0,0.,24.0
1980-11-14 09:42:46.870 ,4,0,0.,24.0,0.,24.0,0.,24.0,0.,24.0
1980-11-14 09:43:10.870 ,3,1,0.,24.0,0.,24.0,0.,24.0,0.,24.0
1980-11-14 09:43:34.870 ,3,0,0.,24.0,0.,24.0,0.,24.0,0.,24.0
1980-11-14 09:43:58.870 ,2,1,0.,24.0,0.,24.0,0.,24.0,0.,24.0
1980-11-14 09:44:22.870 ,2,0,0.,24.0,0.,24.0,0.,24.0,0.,24.0
1980-11-14 09:44:46.870 ,1,1,0.,24.0,0.,24.0,1.,24.0,0.,24.0
1980-11-14 09:45:10.870 ,1,0,0.,24.0,1.,24.0,0.,24.0,0.,24.0
1980-11-14 09:45:34.870 ,0,1,0.,24.0,0.,24.0,0.,24.0,0.,24.0
1980-11-14 09:45:58.870 ,0,0,0.,24.0,0.,24.0,1.,24.0,0.,24.0
1980-11-14 09:46:22.870 ,0,1,0.,24.0,0.,24.0,1.,24.0,0.,24.0
1980-11-14 09:46:46.870 ,0,0,0.,24.0,0.,24.0,1.,24.0,0.,24.0
1980-11-14 09:47:10.870 ,1,1,0.,24.0,0.,24.0,0.,24.0,0.,24.0
1980-11-14 09:47:34.870 ,1,0,0.,24.0,0.,24.0,2.,24.0,0.,24.0
1980-11-14 09:47:58.870 ,2,1,0.,24.0,0.,24.0,1.,24.0,0.,24.0
1980-11-14 09:48:22.870 ,2,0,0.,24.0,0.,24.0,0.,24.0,0.,24.0
1980-11-14 09:48:46.870 ,3,1,0.,24.0,0.,24.0,1.,24.0,0.,24.0
1980-11-14 09:49:10.870 ,3,0,0.,24.0,0.,24.0,1.,24.0,0.,24.0
1980-11-14 09:49:34.870 ,4,1,0.,24.0,0.,24.0,1.,24.0,0.,24.0
1980-11-14 09:49:58.870 ,4,0,0.,24.0,0.,24.0,0.,24.0,0.,24.0
1980-11-14 09:50:22.870 ,5,1,0.,24.0,0.,24.0,1.,24.0,0.,24.0
1980-11-14 09:50:46.870 ,5,0,0.,24.0,0.,24.0,0.,24.0,0.,24.0
1980-11-14 09:51:10.870 ,6,1,0.,24.0,0.,24.0,0.,24.0,0.,24.0
1980-11-14 09:51:34.870 ,6,0,0.,24.0,0.,24.0,0.,24.0,0.,24.0
1980-11-14 09:51:58.870 ,7,1,1.,24.0,0.,24.0,0.,24.0,0.,24.0
1980-11-14 09:52:22.870 ,0,0,15.,24.0,0.,24.0,0.,24.0,0.,24.0
1980-11-14 09:53:15.670 ,0,0,12.,24.0,0.,24.0,0.,24.0,0.,24.0
1980-11-14 09:53:34.870 ,6,1,9.,24.0,0.,24.0,0.,24.0,0.,24.0
1980-11-14 09:53:58.870 ,6,0,0.,24.0,0.,24.0,0.,24.0,0.,24.0
1980-11-14 09:54:22.870 ,5,1,0.,24.0,0.,24.0,0.,24.0,0.,24.0
1980-11-14 09:54:46.870 ,5,0,0.,24.0,0.,24.0,0.,24.0,0.,24.0
1980-11-14 09:55:10.870 ,4,1,0.,24.0,0.,24.0,0.,24.0,0.,24.0
1980-11-14 09:55:34.870 ,4,0,0.,24.0,0.,24.0,0.,24.0,0.,24.0
1980-11-14 09:55:58.870 ,3,1,0.,24.0,0.,24.0,1.,24.0,0.,24.0
1980-11-14 09:56:22.870 ,3,0,0.,24.0,0.,24.0,0.,24.0,0.,24.0
1980-11-14 09:56:46.870 ,2,1,0.,24.0,0.,24.0,1.,24.0,0.,24.0
1980-11-14 09:57:10.870 ,2,0,0.,24.0,0.,24.0,0.,24.0,0.,24.0
1980-11-14 09:57:34.870 ,1,1,0.,24.0,0.,24.0,2.,24.0,0.,24.0
1980-11-14 09:57:58.870 ,1,0,0.,24.0,0.,24.0,1.,24.0,0.,24.0
1980-11-14 09:58:22.870 ,0,1,0.,24.0,0.,24.0,0.,24.0,0.,24.0
1980-11-14 09:58:46.870 ,0,0,0.,24.0,0.,24.0,2.,24.0,0.,24.0
1980-11-14 09:59:10.870 ,0,1,0.,24.0,0.,24.0,0.,24.0,0.,24.0
1980-11-14 09:59:34.870 ,0,0,0.,24.0,0.,24.0,0.,24.0,0.,24.0
1980-11-14 09:59:58.870 ,1,1,0.,24.0,0.,24.0,2.,24.0,0.,24.0
1980-11-14 10:00:22.870 ,1,0,0.,24.0,0.,24.0,0.,24.0,0.,24.0
1980-11-14 10:00:46.870 ,2,1,0.,24.0,0.,24.0,1.,24.0,0.,24.0
1980-11-14 10:01:10.870 ,2,0,0.,24.0,0.,24.0,1.,24.0,0.,24.0
1980-11-14 10:01:34.870 ,3,1,0.,24.0,0.,24.0,0.,24.0,0.,24.0
1980-11-14 10:01:58.870 ,3,0,0.,24.0,0.,24.0,2.,24.0,0.,24.0
1980-11-14 10:02:22.870 ,4,1,0.,24.0,0.,24.0,0.,24.0,0.,24.0
1980-11-14 10:02:46.870 ,4,0,0.,24.0,0.,24.0,0.,24.0,0.,24.0
1980-11-14 10:03:10.870 ,5,1,0.,24.0,0.,24.0,1.,24.0,0.,24.0
1980-11-14 10:03:34.870 ,5,0,0.,24.0,0.,24.0,0.,24.0,0.,24.0
1980-11-14 10:03:58.870 ,6,1,0.,24.0,1.,24.0,1.,24.0,0.,24.0
1980-11-14 10:04:22.870 ,6,0,0.,24.0,0.,24.0,0.,24.0,0.,24.0
1980-11-14 10:04:46.870 ,7,1,3.,24.0,0.,24.0,0.,24.0,0.,24.0
1980-11-14 10:05:10.870 ,7,0,10.,24.0,0.,24.0,1.,24.0,0.,24.0
1980-11-14 10:05:34.870 ,7,1,7.,24.0,0.,24.0,0.,24.0,0.,24.0
1980-11-14 10:05:58.870 ,7,0,9.,24.0,0.,24.0,0.,24.0,0.,24.0
1980-11-14 10:06:22.870 ,6,1,9.,24.0,0.,24.0,1.,24.0,0.,24.0
1980-11-14 10:06:46.870 ,6,0,0.,24.0,0.,24.0,0.,24.0,0.,24.0
1980-11-14 10:07:10.870 ,5,1,0.,24.0,0.,24.0,2.,24.0,0.,24.0
1980-11-14 10:07:34.870 ,5,0,0.,24.0,0.,24.0,0.,24.0,0.,24.0
1980-11-14 10:07:58.870 ,4,1,0.,24.0,0.,24.0,1.,24.0,0.,24.0
1980-11-14 10:08:22.870 ,4,0,0.,24.0,0.,24.0,1.,24.0,0.,24.0
1980-11-14 10:08:46.870 ,3,1,0.,24.0,0.,24.0,0.,24.0,0.,24.0
1980-11-14 10:09:10.870 ,3,0,0.,24.0,0.,24.0,0.,24.0,0.,24.0
1980-11-14 10:09:34.870 ,2,1,0.,24.0,0.,24.0,0.,24.0,0.,24.0
1980-11-14 10:09:58.870 ,2,0,0.,24.0,0.,24.0,1.,24.0,0.,24.0
1980-11-14 10:10:22.870 ,1,1,0.,24.0,0.,24.0,0.,24.0,0.,24.0
1980-11-14 10:10:46.870 ,1,0,0.,24.0,0.,24.0,1.,24.0,0.,24.0
1980-11-14 10:11:10.870 ,0,1,0.,24.0,0.,24.0,0.,24.0,0.,24.0
1980-11-14 10:11:34.870 ,0,0,0.,24.0,0.,24.0,1.,24.0,0.,24.0
1980-11-14 10:11:58.870 ,0,1,0.,24.0,0.,24.0,1.,24.0,0.,24.0
1980-11-14 10:12:22.870 ,0,0,0.,24.0,0.,24.0,0.,24.0,0.,24.0
1980-11-14 10:12:46.870 ,1,1,0.,24.0,0.,24.0,0.,24.0,0.,24.0
1980-11-14 10:13:10.870 ,1,0,0.,24.0,0.,24.0,1.,24.0,0.,24.0
1980-11-14 10:13:34.870 ,2,1,0.,24.0,0.,24.0,0.,24.0,0.,24.0
1980-11-14 10:13:58.870 ,2,0,0.,24.0,0.,24.0,0.,24.0,0.,24.0
1980-11-14 10:14:22.870 ,3,1,0.,24.0,0.,24.0,0.,24.0,0.,24.0
1980-11-14 10:14:46.870 ,3,0,0.,24.0,0.,24.0,2.,24.0,0.,24.0
1980-11-14 10:15:10.870 ,4,1,0.,24.0,0.,24.0,1.,24.0,0.,24.0
1980-11-14 10:15:34.870 ,4,0,0.,24.0,0.,24.0,1.,24.0,0.,24.0
1980-11-14 10:15:58.870 ,5,1,0.,24.0,0.,24.0,0.,24.0,0.,24.0
1980-11-14 10:16:22.870 ,5,0,0.,24.0,0.,24.0,1.,24.0,0.,24.0
1980-11-14 10:16:46.870 ,0,0,,0,,0,,0,,0
1980-11-14 10:17:10.870 ,0,0,0.,24.0,0.,24.0,1.,24.0,0.,24.0
1980-11-14 10:17:34.870 ,7,1,3.,24.0,0.,24.0,1.,24.0,0.,24.0
1980-11-14 10:17:58.870 ,7,1,8.,24.0,0.,24.0,1.,24.0,0.,24.0
1980-11-14 10:18:22.870 ,7,1,10.,24.0,0.,24.0,0.,24.0,0.,24.0
1980-11-14 10:18:46.870 ,7,0,9.,24.0,0.,24.0,0.,24.0,0.,24.0
1980-11-14 10:19:10.870 ,6,1,5.,24.0,0.,24.0,2.,24.0,0.,24.0
1980-11-14 10:19:34.870 ,6,0,0.,24.0,0.,24.0,0.,24.0,0.,24.0
1980-11-14 10:19:58.870 ,5,1,0.,24.0,0.,24.0,0.,24.0,0.,24.0
1980-11-14 10:20:22.870 ,5,0,0.,24.0,0.,24.0,0.,24.0,0.,24.0
1980-11-14 10:20:46.870 ,4,1,0.,24.0,0.,24.0,0.,24.0,0.,24.0
1980-11-14 10:21:10.870 ,4,0,0.,24.0,0.,24.0,0.,24.0,0.,24.0
1980-11-14 10:21:34.870 ,3,1,0.,24.0,0.,24.0,1.,24.0,0.,24.0
1980-11-14 10:21:58.870 ,3,0,0.,24.0,0.,24.0,0.,24.0,0.,24.0
1980-11-14 10:22:22.870 ,2,1,0.,24.0,0.,24.0,1.,24.0,0.,24.0
1980-11-14 10:22:46.870 ,2,0,0.,24.0,0.,24.0,1.,24.0,0.,24.0
1980-11-14 10:23:10.870 ,1,1,0.,24.0,0.,24.0,1.,24.0,0.,24.0
1980-11-14 10:23:34.870 ,1,0,1.,24.0,0.,24.0,2.,24.0,0.,24.0
1980-11-14 10:23:58.870 ,0,1,0.,24.0,0.,24.0,0.,24.0,0.,24.0
1980-11-14 10:24:22.870 ,0,0,0.,24.0,0.,24.0,0.,24.0,0.,24.0
1980-11-14 10:24:46.870 ,0,1,0.,24.0,0.,24.0,0.,24.0,0.,24.0
1980-11-14 10:25:10.870 ,0,0,0.,24.0,0.,24.0,1.,24.0,0.,24.0
1980-11-14 10:25:34.870 ,1,1,0.,24.0,0.,24.0,2.,24.0,0.,24.0
1980-11-14 10:25:58.870 ,1,0,0.,24.0,0.,24.0,1.,24.0,0.,24.0
1980-11-14 10:26:22.870 ,2,1,0.,24.0,0.,24.0,0.,24.0,0.,24.0
1980-11-14 10:26:46.870 ,2,0,0.,24.0,0.,24.0,0.,24.0,0.,24.0
1980-11-14 10:27:10.870 ,3,1,1.,24.0,0.,24.0,0.,24.0,0.,24.0
1980-11-14 10:27:34.870 ,3,0,0.,24.0,0.,24.0,0.,24.0,0.,24.0
1980-11-14 10:27:58.870 ,4,1,0.,24.0,0.,24.0,0.,24.0,0.,24.0
1980-11-14 10:28:22.870 ,4,0,0.,24.0,0.,24.0,0.,24.0,0.,24.0
1980-11-14 10:28:46.870 ,5,1,0.,24.0,0.,24.0,1.,24.0,0.,24.0
1980-11-14 10:29:10.870 ,5,0,0.,24.0,0.,24.0,1.,24.0,0.,24.0
1980-11-14 10:29:34.870 ,6,1,0.,24.0,0.,24.0,0.,24.0,0.,24.0
1980-11-14 10:29:58.870 ,6,0,0.,24.0,0.,24.0,0.,24.0,0.,24.0
1980-11-14 10:30:22.870 ,7,1,4.,24.0,0.,24.0,1.,24.0,0.,24.0
1980-11-14 10:30:46.870 ,7,0,10.,24.0,0.,24.0,0.,24.0,0.,24.0
1980-11-14 10:31:10.870 ,7,1,5.,24.0,0.,24.0,2.,24.0,0.,24.0
1980-11-14 10:31:34.870 ,7,0,8.,24.0,0.,24.0,1.,24.0,0.,24.0
1980-11-14 10:31:58.870 ,6,1,5.,24.0,0.,24.0,0.,24.0,0.,24.0
1980-11-14 10:32:22.870 ,6,0,0.,24.0,0.,24.0,0.,24.0,0.,24.0
1980-11-14 10:32:46.870 ,5,1,0.,24.0,0.,24.0,0.,24.0,0.,24.0
1980-11-14 10:33:10.870 ,5,0,0.,24.0,0.,24.0,0.,24.0,0.,24.0
1980-11-14 10:33:34.870 ,4,1,0.,24.0,0.,24.0,0.,24.0,0.,24.0
1980-11-14 10:33:58.870 ,4,0,0.,24.0,0.,24.0,0.,24.0,0.,24.0
1980-11-14 10:34:22.870 ,3,1,0.,24.0,0.,24.0,0.,24.0,0.,24.0
1980-11-14 10:34:46.870 ,3,0,0.,24.0,0.,24.0,0.,24.0,0.,24.0
1980-11-14 10:35:10.870 ,2,1,0.,24.0,0.,24.0,1.,24.0,0.,24.0
1980-11-14 10:35:34.870 ,2,0,0.,24.0,0.,24.0,0.,24.0,0.,24.0
1980-11-14 10:35:58.870 ,1,1,0.,24.0,0.,24.0,0.,24.0,0.,24.0
1980-11-14 10:36:22.870 ,1,0,0.,24.0,0.,24.0,2.,24.0,0.,24.0
1980-11-14 10:36:46.870 ,0,1,0.,24.0,0.,24.0,0.,24.0,0.,24.0
1980-11-14 10:37:10.870 ,0,0,0.,24.0,0.,24.0,0.,24.0,0.,24.0
1980-11-14 10:37:34.870 ,0,0,,0,,0,,0,,0
1980-11-14 10:37:58.870 ,0,0,,0,,0,,0,,0
1980-11-14 10:37:43.870 ,0,1,0.,24.0,0.,24.0,2.,24.0,0.,24.0
1980-11-14 10:37:58.870 ,0,0,0.,24.0,0.,24.0,0.,24.0,0.,24.0
1980-11-14 10:38:22.870 ,1,1,0.,24.0,0.,24.0,0.,24.0,0.,24.0
1980-11-14 10:38:46.870 ,1,0,0.,24.0,0.,24.0,0.,24.0,0.,24.0
1980-11-14 10:39:10.870 ,2,1,0.,24.0,0.,24.0,0.,24.0,0.,24.0
1980-11-14 10:39:34.870 ,2,0,0.,24.0,0.,24.0,0.,24.0,0.,24.0
1980-11-14 10:39:58.870 ,3,1,0.,24.0,0.,24.0,0.,24.0,0.,24.0
1980-11-14 10:40:22.870 ,3,0,0.,24.0,0.,24.0,1.,24.0,0.,24.0
1980-11-14 10:40:46.870 ,4,1,0.,24.0,0.,24.0,0.,24.0,0.,24.0
1980-11-14 10:41:10.870 ,4,0,0.,24.0,0.,24.0,0.,24.0,0.,24.0
1980-11-14 10:41:34.870 ,5,1,0.,24.0,0.,24.0,0.,24.0,0.,24.0
1980-11-14 10:41:58.870 ,5,0,0.,24.0,0.,24.0,0.,24.0,0.,24.0
1980-11-14 10:42:22.870 ,6,1,0.,24.0,0.,24.0,0.,24.0,0.,24.0
1980-11-14 10:42:46.870 ,6,0,0.,24.0,0.,24.0,0.,24.0,0.,24.0
1980-11-14 10:43:58.870 ,0,0,12.,24.0,0.,24.0,0.,24.0,0.,24.0
1980-11-14 10:44:22.870 ,0,0,13.,24.0,0.,24.0,0.,24.0,0.,24.0
1980-11-14 10:44:46.870 ,6,1,10.,24.0,0.,24.0,0.,24.0,0.,24.0
1980-11-14 10:45:10.870 ,6,0,0.,24.0,0.,24.0,0.,24.0,0.,24.0
1980-11-14 10:45:34.870 ,5,1,1.,24.0,0.,24.0,2.,24.0,0.,24.0
1980-11-14 10:45:58.870 ,5,0,0.,24.0,0.,24.0,0.,24.0,0.,24.0
1980-11-14 10:46:22.870 ,4,1,0.,24.0,0.,24.0,1.,24.0,0.,24.0
1980-11-14 10:46:46.870 ,4,0,0.,24.0,0.,24.0,1.,24.0,0.,24.0
1980-11-14 10:47:10.870 ,3,1,0.,24.0,0.,24.0,0.,24.0,0.,24.0
1980-11-14 10:47:34.870 ,3,0,0.,24.0,0.,24.0,3.,24.0,0.,24.0
1980-11-14 10:47:58.870 ,2,1,0.,24.0,0.,24.0,0.,24.0,0.,24.0
1980-11-14 10:48:22.870 ,2,0,0.,24.0,0.,24.0,2.,24.0,0.,24.0
1980-11-14 10:48:46.870 ,1,1,0.,24.0,0.,24.0,1.,24.0,0.,24.0
1980-11-14 10:49:10.870 ,1,0,0.,24.0,0.,24.0,2.,24.0,0.,24.0
1980-11-14 10:49:34.870 ,0,1,0.,24.0,0.,24.0,1.,24.0,0.,24.0
1980-11-14 10:49:58.870 ,0,0,0.,24.0,0.,24.0,0.,24.0,0.,24.0
1980-11-14 10:50:22.870 ,0,1,0.,24.0,0.,24.0,1.,24.0,0.,24.0
1980-11-14 10:50:46.870 ,0,0,0.,24.0,0.,24.0,0.,24.0,0.,24.0
1980-11-14 10:51:10.870 ,1,1,0.,24.0,0.,24.0,0.,24.0,0.,24.0
1980-11-14 10:51:34.870 ,1,0,0.,24.0,0.,24.0,0.,24.0,0.,24.0
1980-11-14 10:51:58.870 ,2,1,0.,24.0,0.,24.0,2.,24.0,0.,24.0
1980-11-14 10:52:22.870 ,2,0,0.,24.0,0.,24.0,0.,24.0,0.,24.0
1980-11-14 10:52:46.870 ,3,1,0.,24.0,0.,24.0,1.,24.0,0.,24.0
1980-11-14 10:53:10.870 ,3,0,0.,24.0,0.,24.0,0.,24.0,0.,24.0
1980-11-14 10:53:34.870 ,4,1,0.,24.0,0.,24.0,0.,24.0,0.,24.0
1980-11-14 10:53:58.870 ,4,0,0.,24.0,0.,24.0,0.,24.0,0.,24.0
1980-11-14 10:54:22.870 ,5,1,0.,24.0,0.,24.0,0.,24.0,0.,24.0
1980-11-14 10:54:46.870 ,5,0,0.,24.0,0.,24.0,0.,24.0,0.,24.0
1980-11-14 10:55:10.870 ,6,1,0.,24.0,0.,24.0,1.,24.0,0.,24.0
1980-11-14 10:55:34.870 ,6,0,0.,24.0,0.,24.0,1.,24.0,0.,24.0
1980-11-14 10:55:58.870 ,7,1,6.,24.0,0.,24.0,0.,24.0,0.,24.0
1980-11-14 10:56:22.870 ,7,0,11.,24.0,0.,24.0,0.,24.0,0.,24.0
1980-11-14 10:56:46.870 ,7,1,10.,24.0,0.,24.0,1.,24.0,0.,24.0
1980-11-14 10:57:10.870 ,7,0,7.,24.0,0.,24.0,1.,24.0,0.,24.0
1980-11-14 10:57:34.870 ,6,1,3.,24.0,0.,24.0,1.,24.0,0.,24.0
1980-11-14 10:57:58.870 ,6,0,0.,24.0,0.,24.0,0.,24.0,0.,24.0
1980-11-14 10:58:22.870 ,5,1,0.,24.0,0.,24.0,0.,24.0,0.,24.0
1980-11-14 10:58:46.870 ,5,0,0.,24.0,0.,24.0,0.,24.0,0.,24.0
1980-11-14 10:59:10.870 ,4,1,0.,24.0,0.,24.0,0.,24.0,0.,24.0
1980-11-14 10:59:34.870 ,4,0,0.,24.0,0.,24.0,0.,24.0,0.,24.0
1980-11-14 10:59:58.870 ,3,1,0.,24.0,0.,24.0,0.,24.0,0.,24.0
1980-11-14 11:00:22.870 ,3,0,0.,24.0,0.,24.0,0.,24.0,0.,24.0
1980-11-14 11:00:46.870 ,2,1,0.,24.0,0.,24.0,0.,24.0,0.,24.0
1980-11-14 11:01:10.870 ,2,0,0.,24.0,0.,24.0,0.,24.0,0.,24.0
1980-11-14 11:01:34.870 ,1,1,0.,24.0,0.,24.0,1.,24.0,0.,24.0
1980-11-14 11:01:58.870 ,1,0,0.,24.0,0.,24.0,1.,24.0,0.,24.0
1980-11-14 11:02:22.870 ,0,1,0.,24.0,0.,24.0,1.,24.0,0.,24.0
1980-11-14 11:02:46.870 ,0,0,0.,24.0,0.,24.0,0.,24.0,0.,24.0
1980-11-14 11:03:10.870 ,0,1,0.,24.0,0.,24.0,1.,24.0,0.,24.0
1980-11-14 11:03:34.870 ,0,0,0.,24.0,0.,24.0,1.,24.0,0.,24.0
1980-11-14 11:03:58.870 ,1,1,0.,24.0,0.,24.0,2.,24.0,0.,24.0
1980-11-14 11:04:22.870 ,1,0,0.,24.0,0.,24.0,0.,24.0,0.,24.0
1980-11-14 11:04:46.870 ,2,1,0.,24.0,0.,24.0,0.,24.0,0.,24.0
1980-11-14 11:05:10.870 ,2,0,0.,24.0,0.,24.0,0.,24.0,0.,24.0
1980-11-14 11:05:34.870 ,3,1,0.,24.0,0.,24.0,1.,24.0,0.,24.0
1980-11-14 11:05:58.870 ,3,0,0.,24.0,0.,24.0,2.,24.0,0.,24.0
1980-11-14 11:06:22.870 ,4,1,0.,24.0,0.,24.0,0.,24.0,0.,24.0
1980-11-14 11:06:46.870 ,4,0,0.,24.0,0.,24.0,0.,24.0,0.,24.0
1980-11-14 11:07:10.870 ,5,1,0.,24.0,0.,24.0,1.,24.0,0.,24.0
1980-11-14 11:07:34.870 ,5,0,0.,24.0,0.,24.0,0.,24.0,0.,24.0
1980-11-14 11:07:58.870 ,6,1,0.,24.0,0.,24.0,0.,24.0,0.,24.0
1980-11-14 11:08:22.870 ,6,0,0.,24.0,0.,24.0,0.,24.0,0.,24.0
1980-11-14 11:08:46.870 ,7,1,2.,24.0,0.,24.0,0.,24.0,0.,24.0
1980-11-14 11:09:10.870 ,7,0,12.,24.0,0.,24.0,1.,24.0,0.,24.0
1980-11-14 11:09:34.870 ,7,1,10.,24.0,0.,24.0,1.,24.0,0.,24.0
1980-11-14 11:09:58.870 ,7,0,3.,24.0,0.,24.0,0.,24.0,0.,24.0
1980-11-14 11:10:22.870 ,6,1,9.,24.0,0.,24.0,1.,24.0,0.,24.0
1980-11-14 11:10:46.870 ,6,0,0.,24.0,0.,24.0,1.,24.0,0.,24.0
1980-11-14 11:11:10.870 ,5,1,0.,24.0,0.,24.0,0.,24.0,0.,24.0
1980-11-14 11:11:34.870 ,5,0,0.,24.0,0.,24.0,1.,24.0,0.,24.0
1980-11-14 11:11:58.870 ,4,1,0.,24.0,0.,24.0,2.,24.0,0.,24.0
1980-11-14 11:12:22.870 ,4,0,0.,24.0,0.,24.0,0.,24.0,0.,24.0
1980-11-14 11:12:46.870 ,3,1,0.,24.0,0.,24.0,0.,24.0,0.,24.0
1980-11-14 11:13:10.870 ,3,0,0.,24.0,0.,24.0,1.,24.0,0.,24.0
1980-11-14 11:13:34.870 ,2,1,0.,24.0,1.,24.0,0.,24.0,0.,24.0
1980-11-14 11:13:58.870 ,2,0,0.,24.0,0.,24.0,1.,24.0,0.,24.0
1980-11-14 11:14:22.870 ,1,1,0.,24.0,0.,24.0,1.,24.0,0.,24.0
1980-11-14 11:14:46.870 ,1,0,0.,24.0,0.,24.0,1.,24.0,0.,24.0
1980-11-14 11:15:10.870 ,0,1,0.,24.0,0.,24.0,0.,24.0,0.,24.0
1980-11-14 11:15:34.870 ,0,0,0.,24.0,0.,24.0,1.,24.0,0.,24.0
1980-11-14 11:15:58.870 ,0,1,0.,24.0,0.,24.0,0.,24.0,0.,24.0
1980-11-14 11:16:22.870 ,0,0,0.,24.0,0.,24.0,1.,24.0,0.,24.0
1980-11-14 11:16:46.870 ,1,1,0.,24.0,0.,24.0,0.,24.0,0.,24.0
1980-11-14 11:17:10.870 ,1,0,0.,24.0,0.,24.0,0.,24.0,0.,24.0
1980-11-14 11:17:34.870 ,2,1,0.,24.0,0.,24.0,0.,24.0,0.,24.0
1980-11-14 11:17:58.870 ,2,0,0.,24.0,0.,24.0,1.,24.0,0.,24.0
1980-11-14 11:18:22.870 ,3,1,0.,24.0,0.,24.0,1.,24.0,0.,24.0
1980-11-14 11:18:46.870 ,3,0,0.,24.0,0.,24.0,2.,24.0,0.,24.0
1980-11-14 11:19:10.870 ,4,1,0.,24.0,0.,24.0,1.,24.0,0.,24.0
1980-11-14 11:19:34.870 ,4,0,0.,24.0,0.,24.0,0.,24.0,0.,24.0
1980-11-14 11:19:58.870 ,5,1,0.,24.0,0.,24.0,0.,24.0,0.,24.0
1980-11-14 11:20:22.870 ,5,0,0.,24.0,0.,24.0,1.,24.0,0.,24.0
1980-11-14 11:20:46.870 ,6,1,0.,24.0,0.,24.0,0.,24.0,0.,24.0
1980-11-14 11:21:10.870 ,6,0,0.,24.0,0.,24.0,2.,24.0,0.,24.0
1980-11-14 11:21:34.870 ,7,1,2.,24.0,0.,24.0,1.,24.0,0.,24.0
1980-11-14 11:21:58.870 ,7,0,14.,24.0,0.,24.0,0.,24.0,0.,24.0
1980-11-14 11:22:22.870 ,7,1,9.,24.0,0.,24.0,1.,24.0,0.,24.0
1980-11-14 11:22:46.870 ,7,0,15.,24.0,0.,24.0,0.,24.0,0.,24.0
1980-11-14 11:23:10.870 ,6,1,4.,24.0,0.,24.0,1.,24.0,0.,24.0
1980-11-14 11:23:34.870 ,6,0,0.,24.0,0.,24.0,1.,24.0,0.,24.0
1980-11-14 11:23:58.870 ,5,1,0.,24.0,0.,24.0,0.,24.0,0.,24.0
1980-11-14 11:24:22.870 ,5,0,0.,24.0,0.,24.0,0.,24.0,0.,24.0
1980-11-14 11:24:46.870 ,4,1,0.,24.0,0.,24.0,1.,24.0,0.,24.0
1980-11-14 11:25:10.870 ,4,0,0.,24.0,0.,24.0,0.,24.0,0.,24.0
1980-11-14 11:25:34.870 ,3,1,0.,24.0,0.,24.0,1.,24.0,0.,24.0
1980-11-14 11:25:58.870 ,3,0,0.,24.0,0.,24.0,0.,24.0,0.,24.0
1980-11-14 11:26:22.870 ,2,1,0.,24.0,0.,24.0,0.,24.0,0.,24.0
1980-11-14 11:26:46.870 ,2,0,0.,24.0,0.,24.0,2.,24.0,0.,24.0
1980-11-14 11:27:10.870 ,1,1,0.,24.0,0.,24.0,1.,24.0,0.,24.0
1980-11-14 11:27:34.870 ,1,0,0.,24.0,0.,24.0,2.,24.0,0.,24.0
1980-11-14 11:27:58.870 ,0,1,0.,24.0,0.,24.0,1.,24.0,0.,24.0
1980-11-14 11:28:22.870 ,0,0,0.,24.0,0.,24.0,1.,24.0,0.,24.0
1980-11-14 11:28:46.870 ,0,1,0.,24.0,0.,24.0,0.,24.0,0.,24.0
1980-11-14 11:29:10.870 ,0,0,0.,24.0,0.,24.0,0.,24.0,0.,24.0
1980-11-14 11:29:34.870 ,1,1,0.,24.0,0.,24.0,0.,24.0,0.,24.0
1980-11-14 11:29:58.870 ,1,0,0.,24.0,0.,24.0,1.,24.0,0.,24.0
1980-11-14 11:30:22.870 ,2,1,0.,24.0,0.,24.0,0.,24.0,0.,24.0
1980-11-14 11:30:46.870 ,2,0,0.,24.0,0.,24.0,0.,24.0,0.,24.0
1980-11-14 11:31:10.870 ,3,1,0.,24.0,0.,24.0,0.,24.0,0.,24.0
1980-11-14 11:31:34.870 ,3,0,0.,24.0,0.,24.0,1.,24.0,0.,24.0
1980-11-14 11:31:58.870 ,4,1,0.,24.0,0.,24.0,1.,24.0,0.,24.0
1980-11-14 11:32:22.870 ,4,0,0.,24.0,0.,24.0,1.,24.0,0.,24.0
1980-11-14 11:32:46.870 ,5,1,0.,24.0,0.,24.0,1.,24.0,0.,24.0
1980-11-14 11:33:10.870 ,5,0,0.,24.0,0.,24.0,0.,24.0,0.,24.0
1980-11-14 11:33:34.870 ,6,1,0.,24.0,0.,24.0,1.,24.0,0.,24.0
1980-11-14 11:33:58.870 ,6,0,0.,24.0,0.,24.0,0.,24.0,0.,24.0
1980-11-14 11:34:22.870 ,7,1,1.,24.0,0.,24.0,0.,24.0,0.,24.0
1980-11-14 11:34:46.870 ,7,0,13.,24.0,0.,24.0,0.,24.0,0.,24.0
1980-11-14 11:35:10.870 ,7,1,12.,24.0,0.,24.0,0.,24.0,0.,24.0
1980-11-14 11:35:34.870 ,7,0,9.,24.0,0.,24.0,2.,24.0,0.,24.0
1980-11-14 11:35:58.870 ,6,1,12.,24.0,0.,24.0,0.,24.0,0.,24.0
1980-11-14 11:36:22.870 ,6,0,0.,24.0,0.,24.0,1.,24.0,0.,24.0
1980-11-14 11:36:46.870 ,5,1,0.,24.0,0.,24.0,0.,24.0,0.,24.0
1980-11-14 11:37:10.870 ,5,0,0.,24.0,0.,24.0,0.,24.0,0.,24.0
1980-11-14 11:37:34.870 ,4,1,0.,24.0,0.,24.0,0.,24.0,0.,24.0
1980-11-14 11:37:58.870 ,4,0,0.,24.0,0.,24.0,1.,24.0,0.,24.0
1980-11-14 11:38:22.870 ,3,1,0.,24.0,0.,24.0,1.,24.0,0.,24.0
1980-11-14 11:38:46.870 ,3,0,0.,24.0,0.,24.0,0.,24.0,0.,24.0
1980-11-14 11:39:10.870 ,2,1,0.,24.0,0.,24.0,1.,24.0,0.,24.0
1980-11-14 11:39:34.870 ,2,0,0.,24.0,0.,24.0,0.,24.0,0.,24.0
1980-11-14 11:39:58.870 ,1,1,0.,24.0,0.,24.0,0.,24.0,0.,24.0
1980-11-14 11:40:22.870 ,1,0,0.,24.0,0.,24.0,0.,24.0,0.,24.0
1980-11-14 11:40:46.870 ,0,1,0.,24.0,0.,24.0,1.,24.0,0.,24.0
1980-11-14 11:41:10.870 ,0,0,0.,24.0,0.,24.0,1.,24.0,0.,24.0
1980-11-14 11:41:34.870 ,0,1,0.,24.0,0.,24.0,0.,24.0,0.,24.0
1980-11-14 11:41:58.870 ,0,0,0.,24.0,0.,24.0,2.,24.0,0.,24.0
1980-11-14 11:42:22.870 ,1,1,0.,24.0,0.,24.0,0.,24.0,0.,24.0
1980-11-14 11:42:46.870 ,1,0,0.,24.0,0.,24.0,0.,24.0,0.,24.0